SCP
0 0 0 0 0 0 0 0 0 0 0 0 0 0 0 0 0 0 0 0 0 0 0 0 0 0 0 0 0 0 0 0 0 0 0 0 0 0 0 0 0 0 0
0 0 0 0 0 0 0 0 0 0 0 0 0 0 0 0 0 0 0 0 0 0 0 0 0 0 0 0 0 0 0 0 0 0 0 0 0 0 0 0 0 0 0
0 0 0 0 0 0 0 0 0 0 0 0 0 0 0 0 0 0 0 0 0 0 0 0 0 0 0 0 0 0 0 0 0 0 0 0 0 0 0 0 0 0 0
0 0 0 0 0 0 0 0 0 0 0 0 0 0 0 0 0 0 0 0 0 0 0 0 0 0 0 0 0 0 0 0 0 0 0 0 0 0 0 0 0 0 0
0 0 0 0 0 0 0 0 0 0 0 0 0 0 0 0 0 0 0 0 0 0 0 0 0 0 0 0 0 0 0 0 0 0 0 0 0 0 0 0 0 0 0
0 0 0 0 0 0 0 0 0 0 0 0 0 0 0 0 0 0 0 0 0 0 0 0 0 0 0 0 0 0 0 0 0 0 0 0 0 0 0 0 0 0 0
0 0 0 0 0 0 0 0 0 0 0 0 0 0 0 0 0 0 0 0 0 0 0 0 0 0 0 0 0 0 0 0 0 0 0 0 0 0 0 0 0 0 0
0 0 0 0 0 0 0 0 0 0 0 0 0 0 0 0 0 0 0 0 0 0 0 0 0 0 0 0 0 0 0 0 0 0 0 0 0 0 0 0 0 0 0
0 0 0 0 0 0 0 0 0 0 0 0 0 0 0 0 0 0 0 0 0 0 0 0 0 0 0 0 0 0 0 0 0 0 0 0 0 0 0 0 0 0 0
0 0 0 0 0 0 0 0 0 0 0 0 0 0 0 0 0 0 0 0 0 0 0 0 0 0 0 0 0 0 0 0 0 0 0 0 0 0 0 0 0 0 0
0 0 0 0 0 0 0 0 0 0 0 0 0 0 0 0 0 0 0 0 0 0 0 0 0 0 0 0 0 0 0 0 0 0 0 0 0 0 0 0 0 0 0
0 0 0 0 0 0 0 0 0 0 0 0 0 0 0 0 0 0 0 0 0 0 0 0 0 0 0 0 0 0 0 0 0 0 0 0 0 0 0 0 0 0 0
0 0 0 0 0 0 0 0 0 0 0 0 0 0 0 0 0 0 0 0 0 0 0 0 0 0 0 0 0 0 0 0 0 0 0 0 0 0 0 0 0 0 0
0 0 0 0 0 0 0 0 0 0 0 0 0 0 0 0 0 0 0 0 0 0 0 0 0 0 0 0 0 0 0 0 0 0 0 0 0 0 0 0 0 0 0
0 0 0 0 0 0 0 0 0 0 0 0 0 0 0 0 0 0 0 0 0 0 0 0 0 0 0 0 0 0 0 0 0 0 0 0 0 0 0 0 0 0 0
0 0 0 0 0 0 0 0 0 0 0 0 0 0 0 0 0 0 0 0 0 0 0 0 0 0 0 0 0 0 0 0 0 0 0 0 0 0 0 0 0 0 0
0 0 0 0 0 0 0 0 0 0 0 0 0 0 0 0 0 0 0 0 0 0 0 0 0 0 0 0 0 0 0 0 0 0 0 0 0 0 0 0 0 0 0
0 0 0 0 0 0 0 0 0 0 0 0 0 0 0 0 0 0 0 0 0 0 0 0 0 0 0 0 0 0 0 0 0 0 0 0 0 0 0 0 0 0 0
0 0 0 0 0 0 0 0 0 0 0 0 0 0 0 0 0 0 0 0 0 0 0 0 0 0 0 0 0 0 0 0 0 0 0 0 0 0 0 0 0 0 0
0 0 0 0 0 0 0 0 0 0 0 0 0 0 0 0 0 0 0 0 0 0 0 0 0 0 0 0 0 0 0 0 0 0 0 0 0 0 0 0 0 0 0
0 0 0 0 0 0 0 0 0 0 0 0 0 0 0 0 0 0 0 0 0 0 0 0 0 0 0 0 0 0 0 0 0 0 0 0 0 0 0 0 0 0 0
0 0 0 0 0 0 0 0 0 0 0 0 0 0 0 0 0 0 0 0 0 0 0 0 0 0 0 0 0 0 0 0 0 0 0 0 0 0 0 0 0 0 0
0 0 0 0 0 0 0 0 0 0 0 0 0 0 0 0 0 0 0 0 0 0 0 0 0 0 0 0 0 0 0 0 0 0 0 0 0 0 0 0 0 0 0
0 0 0 0 0 0 0 0 0 0 0 0 0 0 0 0 0 0 0 0 0 0 0 0 0 0 0 0 0 0 0 0 0 0 0 0 0 0 0 0 0 0 0
0 0 0 0 0 0 0 0 0 0 0 0 0 0 0 0 0 0 0 0 0 0 0 0 0 0 0 0 0 0 0 0 0 0 0 0 0 0 0 0 0 0 0
0 0 0 0 0 0 0 0 0 0 0 0 0 0 0 0 0 0 0 0 0 0 0 0 0 0 0 0 0 0 0 0 0 0 0 0 0 0 0 0 0 0 0
Wind_Speed
2 2 2 2 3 3 3 3 4 5 5 5 5 5 5 4 4 3 3 8 9 9 9 9 9 8 8 7 8 7 7 7 6 5 5 5 5 6 7 7 8 8 8
3 3 3 3 3 3 3 3 4 4 4 4 5 5 4 4 4 4 3 5 8 9 9 8 8 8 8 8 8 8 7 7 7 6 6 5 6 6 7 7 8 8 8
3 3 3 3 2 3 4 4 4 4 4 5 4 4 4 4 4 4 4 3 4 7 9 9 8 8 8 8 9 9 8 8 7 6 7 7 6 6 7 7 7 8 8
4 3 3 2 2 3 3 3 3 4 4 4 3 3 3 3 4 3 4 3 3 3 6 9 8 8 8 9 9 9 9 8 8 7 7 7 7 6 6 6 6 7 7
4 4 3 2 3 3 3 3 3 3 3 3 3 3 3 3 3 3 4 4 3 3 3 6 8 9 8 8 9 8 8 8 8 7 7 7 6 6 7 6 6 6 6
3 4 3 3 3 3 3 3 4 3 3 2 4 4 3 3 3 3 3 3 3 3 3 4 4 5 8 8 8 7 8 9 8 8 7 7 6 6 6 6 6 6 6
3 3 3 3 3 3 2 3 3 4 2 2 3 3 4 4 4 3 3 3 3 3 3 3 3 3 3 6 7 7 7 8 8 7 7 7 6 6 6 6 6 6 6
2 3 3 3 3 3 3 2 3 2 1 1 2 3 2 4 4 4 3 3 3 3 3 3 3 3 3 2 4 6 6 6 7 7 7 6 6 6 6 6 6 6 6
2 2 2 3 2 2 2 2 2 3 1 1 1 3 3 1 1 3 4 3 3 3 3 2 3 3 3 2 2 4 6 6 6 7 7 7 6 6 6 6 6 6 6
2 2 2 2 2 2 2 2 2 2 3 1 1 1 2 3 2 1 3 3 3 3 3 3 3 3 3 2 3 4 5 6 5 6 6 7 6 6 6 5 5 5 5
1 1 2 2 2 2 2 2 2 2 2 2 1 1 2 2 2 3 0 2 3 3 2 2 2 2 2 2 2 3 4 5 5 6 6 6 6 6 6 6 5 5 5
1 1 1 1 1 1 2 2 2 2 2 2 2 2 2 2 1 2 2 0 1 2 3 2 2 2 2 2 2 3 4 4 5 6 6 6 6 5 5 5 5 5 5
1 1 0 1 1 1 2 2 2 2 2 2 2 2 2 2 2 2 3 1 0 2 2 2 2 2 2 2 2 4 4 4 4 5 5 5 5 5 5 4 4 4 4
1 1 1 1 1 1 1 2 2 2 2 2 2 2 1 1 2 2 3 3 1 1 2 2 2 2 2 2 2 3 2 4 4 4 4 4 5 4 4 4 3 3 3
1 0 1 1 1 1 1 1 2 2 2 2 2 2 1 1 1 1 2 3 4 1 1 2 1 2 1 1 2 1 1 2 3 2 3 4 4 4 4 3 3 3 3
1 1 0 0 0 1 1 1 1 1 2 2 1 2 1 1 1 1 2 2 2 3 2 2 2 1 1 1 1 1 1 1 1 1 2 3 4 4 3 3 3 3 3
1 1 1 0 0 1 1 1 1 2 3 2 1 2 1 1 2 1 1 1 1 2 2 1 1 1 0 1 1 1 1 1 1 0 1 2 2 3 3 3 3 2 2
1 1 1 1 0 0 0 1 1 2 3 3 2 2 2 2 2 1 1 1 1 2 3 2 1 1 1 1 0 1 1 1 1 1 1 1 1 2 2 2 2 1 1
1 1 1 1 0 1 1 1 2 2 3 3 3 3 3 3 2 1 2 2 1 1 2 3 1 1 1 0 1 1 1 1 1 1 1 1 0 1 1 1 2 1 1
1 1 1 1 1 1 1 1 1 1 2 2 3 3 3 4 4 4 3 3 2 2 2 2 1 1 1 1 0 0 1 2 2 1 1 1 1 1 1 1 1 1 1
1 1 1 0 1 1 1 1 1 2 2 2 2 2 3 3 4 4 3 3 3 2 2 1 1 1 1 1 1 1 1 1 2 1 0 1 1 1 1 2 1 1 1
1 1 1 0 0 1 2 1 1 2 2 3 2 2 2 2 3 3 3 4 5 4 4 3 2 3 3 3 2 2 1 0 2 1 1 2 1 1 2 2 3 2 2
1 1 1 1 1 1 2 2 1 1 2 3 3 3 2 1 2 2 2 3 3 4 5 5 4 5 4 4 3 3 2 2 3 2 1 2 1 2 3 3 4 4 3
2 2 2 2 2 2 2 2 1 1 2 2 3 3 3 2 3 3 3 2 2 3 4 4 5 5 4 4 5 4 3 2 1 1 2 2 2 2 2 2 5 5 4
2 2 2 2 2 3 3 2 1 1 1 3 3 3 3 3 4 3 3 3 2 3 4 4 4 4 4 4 3 2 1 1 1 2 2 2 2 1 2 2 4 5 5
2 2 2 3 3 3 3 2 1 1 1 2 2 3 4 4 4 4 4 4 4 4 2 2 2 3 3 3 5 4 4 3 1 2 2 2 1 1 2 2 2 2 3
Wind_Direction
79 73 69 69 70 72 77 76 73 71 71 71 75 79 72 67 63 53 47 61 65 63 64 62 63 60 59 59 59 61 68 75 74 74 72 81 83 87 85 83 83 82 84
94 92 84 81 74 77 77 81 78 76 72 72 68 68 68 62 60 53 42 45 55 56 53 56 57 56 58 57 59 60 68 75 75 69 65 70 82 88 89 88 86 85 88
98 95 91 87 82 84 81 78 72 70 72 71 64 61 59 55 58 54 47 39 35 45 47 50 51 52 54 52 55 60 66 70 71 69 67 66 77 83 88 89 90 88 89
96 89 87 86 91 87 83 86 78 74 65 64 61 54 52 53 52 53 53 45 37 32 34 42 47 47 49 51 54 60 62 65 66 68 68 67 72 79 89 94 92 88 88
96 96 94 87 90 84 79 89 79 87 84 71 67 58 47 49 47 59 56 47 43 39 28 34 41 44 48 50 54 59 61 65 63 65 66 64 71 80 86 92 96 93 91
96 99 96 88 87 85 77 84 87 76 86 85 76 57 40 36 43 48 48 42 37 39 34 33 27 31 39 47 50 53 59 64 61 59 61 62 71 78 84 85 89 91 91
96 104 99 97 94 99 108 108 100 86 74 85 78 47 28 29 41 36 32 38 31 27 31 32 31 25 23 35 39 49 58 62 59 58 55 61 67 76 86 87 89 92 93
94 111 114 117 109 104 95 100 111 104 78 67 108 92 34 8 11 18 23 37 25 20 29 34 30 27 24 18 27 45 52 57 58 56 57 61 66 74 83 86 90 87 92
84 101 116 124 125 122 128 130 131 129 136 7 90 132 133 182 332 350 7 19 16 20 14 15 24 20 24 21 15 41 51 48 55 52 55 59 65 70 82 88 89 90 89
75 97 110 116 130 131 136 147 138 141 134 132 16 56 129 150 140 358 342 353 12 23 11 18 20 20 15 18 33 49 54 52 52 54 53 54 65 72 78 86 89 92 91
25 92 114 113 123 138 148 141 132 132 134 142 142 109 75 70 99 131 236 332 352 354 359 2 12 10 6 17 30 45 55 58 55 54 50 53 58 68 73 78 89 93 91
343 6 110 111 133 149 160 156 148 139 135 125 120 119 133 133 147 135 153 239 325 325 350 5 16 7 1 8 29 57 62 59 54 50 46 46 50 54 67 75 80 85 87
329 295 198 143 159 177 164 149 136 138 137 128 134 134 137 150 149 139 135 158 314 315 343 351 351 3 6 6 13 49 67 63 55 53 47 43 42 45 52 68 80 83 86
250 278 265 200 195 171 151 140 128 147 132 136 141 142 130 151 141 144 152 148 116 346 345 313 332 351 351 352 16 36 50 59 57 61 51 48 42 42 43 51 71 76 80
232 286 329 259 251 179 157 140 139 150 140 152 159 144 130 157 149 154 149 154 151 168 272 280 304 321 335 350 10 27 27 51 50 66 58 51 46 43 41 41 50 70 81
205 154 56 51 209 190 173 152 156 157 148 171 161 140 134 149 146 146 154 164 153 158 200 247 247 271 316 14 39 26 339 22 28 86 70 66 56 49 45 40 46 63 78
189 176 190 154 150 206 199 174 192 175 172 178 173 158 173 159 142 140 146 146 146 140 169 254 259 284 355 356 13 4 350 338 323 154 94 81 67 55 45 42 44 44 66
192 190 170 136 163 239 192 176 217 202 189 189 195 171 186 162 151 157 149 159 176 171 162 189 240 267 270 253 234 321 340 353 314 221 174 89 64 50 38 40 32 20 52
163 154 123 132 198 229 213 214 215 210 199 200 195 184 190 167 179 188 171 170 183 167 154 163 206 235 269 306 11 333 337 336 318 253 230 233 185 47 31 30 19 9 358
157 172 170 189 223 237 225 210 211 216 197 202 198 191 190 187 191 190 183 181 166 142 138 150 177 217 241 277 102 290 321 325 313 294 303 306 271 297 311 336 336 313 301
164 164 145 1 317 276 260 242 212 206 200 203 212 209 206 200 197 192 183 177 161 154 155 159 184 208 224 211 218 220 253 298 305 252 314 310 314 303 291 279 272 270 257
186 158 177 181 310 298 300 270 202 204 204 198 213 232 232 211 207 199 187 171 165 168 176 178 203 214 226 217 206 202 185 194 278 245 180 275 250 270 276 263 256 257 251
195 204 226 214 227 259 304 300 233 193 207 211 211 211 220 228 196 184 189 184 196 199 189 185 197 214 212 209 194 199 205 206 232 230 160 244 248 259 264 261 249 250 260
206 215 225 220 223 251 283 291 252 189 214 233 221 206 204 223 208 187 183 192 221 230 226 211 208 216 217 208 198 197 202 212 263 255 169 219 239 250 268 260 252 244 252
221 221 221 214 224 260 274 283 269 174 232 252 248 233 216 208 215 191 176 200 236 263 263 252 246 244 245 232 193 139 140 146 257 249 196 199 226 250 264 258 261 251 248
228 232 236 229 229 245 262 264 250 194 237 259 261 256 244 228 221 200 190 192 218 242 249 270 270 265 248 231 205 186 184 180 196 242 220 187 206 187 288 274 261 269 260